Time,TemperatureF,DewpointF,PressureIn,WindDirection,WindDirectionDegrees,WindSpeedMPH,WindSpeedGustMPH,Humidity,HourlyPrecipIn,Conditions,Clouds,dailyrainin,SoftwareType,DateUTC
2013-04-09 00:00:00,64.8,34.2,29.27,West,262,0.0,1.0,32,0.00,,,0.00,Wunderground v.1.15,2013-04-09 06:00:00,
2013-04-09 00:05:00,64.6,34.8,29.26,WSW,254,0.0,1.0,33,0.00,,,0.00,Wunderground v.1.15,2013-04-09 06:05:00,
2013-04-09 00:15:00,64.2,35.2,29.26,WSW,250,1.0,2.0,34,0.00,,,0.00,Wunderground v.1.15,2013-04-09 06:15:00,
2013-04-09 00:20:00,64.1,35.1,29.26,WSW,256,1.0,3.0,34,0.00,,,0.00,Wunderground v.1.15,2013-04-09 06:20:00,
2013-04-09 00:25:00,63.9,35.7,29.26,West,268,1.0,3.0,35,0.00,,,0.00,Wunderground v.1.15,2013-04-09 06:25:00,
2013-04-09 00:30:00,63.7,35.5,29.26,WSW,255,2.0,2.0,35,0.00,,,0.00,Wunderground v.1.15,2013-04-09 06:30:00,
2013-04-09 00:35:00,63.6,35.4,29.26,SW,232,2.0,2.0,35,0.00,,,0.00,Wunderground v.1.15,2013-04-09 06:35:00,
2013-04-09 00:40:00,63.4,35.2,29.27,WSW,253,1.0,2.0,35,0.00,,,0.00,Wunderground v.1.15,2013-04-09 06:40:00,
2013-04-09 00:50:00,63.1,35.0,29.27,West,263,2.0,3.0,35,0.00,,,0.00,Wunderground v.1.15,2013-04-09 06:50:00,
2013-04-09 00:55:00,63.0,34.2,29.27,West,268,2.0,5.0,34,0.00,,,0.00,Wunderground v.1.15,2013-04-09 06:55:00,
2013-04-09 01:00:00,62.9,34.1,29.27,NNW,342,2.0,2.0,34,0.00,,,0.00,Wunderground v.1.15,2013-04-09 07:00:00,
2013-04-09 01:05:00,62.8,33.2,29.26,SW,221,3.0,3.0,33,0.00,,,0.00,Wunderground v.1.15,2013-04-09 07:05:00,
2013-04-09 01:15:00,62.5,32.2,29.26,WSW,240,2.0,3.0,32,0.00,,,0.00,Wunderground v.1.15,2013-04-09 07:15:00,
2013-04-09 01:20:00,62.4,32.1,29.27,WSW,256,2.0,2.0,32,0.00,,,0.00,Wunderground v.1.15,2013-04-09 07:20:00,
2013-04-09 01:25:00,62.3,32.0,29.26,West,272,2.0,5.0,32,0.00,,,0.00,Wunderground v.1.15,2013-04-09 07:25:00,
2013-04-09 01:30:00,62.2,32.0,29.27,WSW,244,2.0,2.0,32,0.00,,,0.00,Wunderground v.1.15,2013-04-09 07:30:00,
2013-04-09 01:35:00,62.2,32.0,29.27,WSW,238,3.0,6.0,32,0.00,,,0.00,Wunderground v.1.15,2013-04-09 07:35:00,
2013-04-09 01:40:00,62.1,31.9,29.27,West,260,2.0,2.0,32,0.00,,,0.00,Wunderground v.1.15,2013-04-09 07:40:00,
2013-04-09 01:50:00,61.9,31.7,29.27,WSW,249,1.0,6.0,32,0.00,,,0.00,Wunderground v.1.15,2013-04-09 07:50:00,
2013-04-09 01:55:00,61.8,31.6,29.27,WSW,237,2.0,6.0,32,0.00,,,0.00,Wunderground v.1.15,2013-04-09 07:55:00,
2013-04-09 02:00:00,61.7,31.5,29.27,SW,233,2.0,5.0,32,0.00,,,0.00,Wunderground v.1.15,2013-04-09 08:00:00,
2013-04-09 02:05:00,61.8,32.4,29.25,WSW,253,3.0,5.0,33,0.00,,,0.00,Wunderground v.1.15,2013-04-09 08:05:00,
2013-04-09 02:15:00,61.8,32.4,29.25,SSW,206,4.0,6.0,33,0.00,,,0.00,Wunderground v.1.15,2013-04-09 08:15:00,
2013-04-09 02:25:00,61.6,32.2,29.25,WSW,246,2.0,3.0,33,0.00,,,0.00,Wunderground v.1.15,2013-04-09 08:25:00,
2013-04-09 02:30:00,61.6,32.9,29.25,SE,130,2.0,2.0,34,0.00,,,0.00,Wunderground v.1.15,2013-04-09 08:30:00,
2013-04-09 02:35:00,61.4,32.8,29.25,WSW,247,2.0,2.0,34,0.00,,,0.00,Wunderground v.1.15,2013-04-09 08:35:00,
2013-04-09 02:40:00,61.4,32.8,29.25,West,271,2.0,2.0,34,0.00,,,0.00,Wunderground v.1.15,2013-04-09 08:40:00,
2013-04-09 02:50:00,61.2,31.8,29.26,SW,227,2.0,2.0,33,0.00,,,0.00,Wunderground v.1.15,2013-04-09 08:50:00,
2013-04-09 02:55:00,61.1,31.8,29.26,SSW,192,3.0,3.0,33,0.00,,,0.00,Wunderground v.1.15,2013-04-09 08:55:00,
2013-04-09 03:00:00,61.1,31.8,29.26,WSW,248,3.0,3.0,33,0.00,,,0.00,Wunderground v.1.15,2013-04-09 09:00:00,
2013-04-09 03:05:00,61.0,31.7,29.26,SW,225,3.0,11.0,33,0.00,,,0.00,Wunderground v.1.15,2013-04-09 09:05:00,
2013-04-09 03:15:00,60.8,30.7,29.25,SW,226,4.0,4.0,32,0.00,,,0.00,Wunderground v.1.15,2013-04-09 09:15:00,
2013-04-09 03:25:00,60.7,30.6,29.26,WSW,242,6.0,10.0,32,0.00,,,0.00,Wunderground v.1.15,2013-04-09 09:25:00,
2013-04-09 03:30:00,60.6,30.6,29.26,WSW,242,6.0,6.0,32,0.00,,,0.00,Wunderground v.1.15,2013-04-09 09:30:00,
2013-04-09 03:35:00,60.5,30.5,29.26,SSW,211,5.0,6.0,32,0.00,,,0.00,Wunderground v.1.15,2013-04-09 09:35:00,
2013-04-09 03:40:00,60.5,30.5,29.27,SW,219,5.0,5.0,32,0.00,,,0.00,Wunderground v.1.15,2013-04-09 09:40:00,
2013-04-09 03:45:00,60.4,30.4,29.27,ENE,68,5.0,5.0,32,0.00,,,0.00,Wunderground v.1.15,2013-04-09 09:45:00,
2013-04-09 03:55:00,60.4,30.4,29.27,West,266,6.0,15.0,32,0.00,,,0.00,Wunderground v.1.15,2013-04-09 09:55:00,
2013-04-09 04:00:00,60.3,30.3,29.27,SW,221,7.0,7.0,32,0.00,,,0.00,Wunderground v.1.15,2013-04-09 10:00:00,
2013-04-09 04:05:00,60.2,30.2,29.28,West,277,6.0,7.0,32,0.00,,,0.00,Wunderground v.1.15,2013-04-09 10:05:00,
2013-04-09 04:15:00,60.0,30.0,29.28,West,272,5.0,12.0,32,0.00,,,0.00,Wunderground v.1.15,2013-04-09 10:15:00,
2013-04-09 04:20:00,59.9,29.9,29.28,WSW,252,5.0,5.0,32,0.00,,,0.00,Wunderground v.1.15,2013-04-09 10:20:00,
2013-04-09 04:30:00,59.7,30.5,29.29,WSW,242,4.0,5.0,33,0.00,,,0.00,Wunderground v.1.15,2013-04-09 10:30:00,
2013-04-09 04:35:00,59.6,30.4,29.29,SW,225,4.0,5.0,33,0.00,,,0.00,Wunderground v.1.15,2013-04-09 10:35:00,
2013-04-09 04:40:00,59.4,30.3,29.30,West,264,4.0,4.0,33,0.00,,,0.00,Wunderground v.1.15,2013-04-09 10:40:00,
2013-04-09 04:45:00,59.0,30.6,29.31,WSW,254,3.0,4.0,34,0.00,,,0.00,Wunderground v.1.15,2013-04-09 10:45:00,
2013-04-09 04:50:00,58.5,30.9,29.32,WSW,237,4.0,4.0,35,0.00,,,0.00,Wunderground v.1.15,2013-04-09 10:50:00,
2013-04-09 04:55:00,57.8,31.0,29.33,WSW,256,5.0,10.0,36,0.00,,,0.00,Wunderground v.1.15,2013-04-09 10:55:00,
2013-04-09 05:05:00,56.8,30.8,29.33,WNW,284,4.0,6.0,37,0.00,,,0.00,Wunderground v.1.15,2013-04-09 11:05:00,
2013-04-09 05:15:00,56.3,31.0,29.35,West,261,3.0,4.0,38,0.00,,,0.00,Wunderground v.1.15,2013-04-09 11:15:00,
2013-04-09 05:20:00,56.0,30.7,29.35,WSW,244,3.0,3.0,38,0.00,,,0.00,Wunderground v.1.15,2013-04-09 11:20:00,
2013-04-09 05:25:00,55.8,31.2,29.35,SW,232,3.0,3.0,39,0.00,,,0.00,Wunderground v.1.15,2013-04-09 11:25:00,
2013-04-09 05:30:00,55.7,31.1,29.36,WSW,242,3.0,3.0,39,0.00,,,0.00,Wunderground v.1.15,2013-04-09 11:30:00,
2013-04-09 05:35:00,55.5,30.9,29.36,WNW,286,2.0,3.0,39,0.00,,,0.00,Wunderground v.1.15,2013-04-09 11:35:00,
2013-04-09 05:40:00,55.5,30.3,29.35,SW,224,2.0,4.0,38,0.00,,,0.00,Wunderground v.1.15,2013-04-09 11:40:00,
2013-04-09 05:50:00,54.4,33.5,29.37,West,268,7.0,7.0,45,0.00,,,0.00,Wunderground v.1.15,2013-04-09 11:50:00,
2013-04-09 05:55:00,53.3,34.1,29.39,WNW,301,7.0,7.0,48,0.00,,,0.00,Wunderground v.1.15,2013-04-09 11:55:00,
2013-04-09 06:00:00,52.3,34.2,29.41,West,273,5.0,5.0,50,0.00,,,0.00,Wunderground v.1.15,2013-04-09 12:00:00,
2013-04-09 06:05:00,51.2,34.2,29.42,NW,306,6.0,7.0,52,0.00,,,0.00,Wunderground v.1.15,2013-04-09 12:05:00,
2013-04-09 06:15:00,49.6,34.1,29.43,NW,313,5.0,6.0,55,0.00,,,0.00,Wunderground v.1.15,2013-04-09 12:15:00,
2013-04-09 06:20:00,49.0,34.0,29.43,West,262,6.0,9.0,56,0.00,,,0.00,Wunderground v.1.15,2013-04-09 12:20:00,
2013-04-09 06:25:00,48.8,33.8,29.44,WNW,300,6.0,9.0,56,0.00,,,0.00,Wunderground v.1.15,2013-04-09 12:25:00,
2013-04-09 06:35:00,48.6,33.6,29.45,West,262,6.0,6.0,56,0.00,,,0.00,Wunderground v.1.15,2013-04-09 12:35:00,
2013-04-09 06:40:00,48.6,33.6,29.45,West,259,7.0,7.0,56,0.00,,,0.00,Wunderground v.1.15,2013-04-09 12:40:00,
2013-04-09 06:45:00,48.5,33.5,29.45,WSW,252,6.0,7.0,56,0.00,,,0.00,Wunderground v.1.15,2013-04-09 12:45:00,
2013-04-09 06:50:00,48.5,33.5,29.45,West,269,5.0,5.0,56,0.00,,,0.00,Wunderground v.1.15,2013-04-09 12:50:00,
2013-04-09 06:55:00,48.5,33.1,29.45,WNW,302,6.0,6.0,55,0.00,,,0.00,Wunderground v.1.15,2013-04-09 12:55:00,
2013-04-09 07:00:00,48.5,33.5,29.45,West,279,5.0,5.0,56,0.00,,,0.00,Wunderground v.1.15,2013-04-09 13:00:00,
2013-04-09 07:05:00,48.5,33.9,29.47,West,263,4.0,6.0,57,0.00,,,0.00,Wunderground v.1.15,2013-04-09 13:05:00,
2013-04-09 07:15:00,48.5,34.4,29.48,NW,305,5.0,5.0,58,0.00,,,0.00,Wunderground v.1.15,2013-04-09 13:15:00,
2013-04-09 07:20:00,48.5,34.4,29.48,West,261,3.0,3.0,58,0.00,,,0.00,Wunderground v.1.15,2013-04-09 13:20:00,
2013-04-09 07:25:00,48.4,34.7,29.49,NW,317,3.0,6.0,59,0.00,,,0.00,Wunderground v.1.15,2013-04-09 13:25:00,
2013-04-09 07:30:00,48.4,34.7,29.49,WSW,254,3.0,3.0,59,0.00,,,0.00,Wunderground v.1.15,2013-04-09 13:30:00,
2013-04-09 07:35:00,48.4,34.7,29.49,NW,309,2.0,3.0,59,0.00,,,0.00,Wunderground v.1.15,2013-04-09 13:35:00,
2013-04-09 07:45:00,48.3,34.6,29.50,West,260,2.0,6.0,59,0.00,,,0.00,Wunderground v.1.15,2013-04-09 13:45:00,
2013-04-09 07:50:00,48.4,34.7,29.50,SSW,202,1.0,1.0,59,0.00,,,0.00,Wunderground v.1.15,2013-04-09 13:50:00,
2013-04-09 08:00:00,48.4,34.7,29.50,WSW,256,1.0,1.0,59,0.00,,,0.00,Wunderground v.1.15,2013-04-09 14:00:00,
2013-04-09 08:05:00,48.5,34.8,29.51,West,279,1.0,3.0,59,0.00,,,0.00,Wunderground v.1.15,2013-04-09 14:05:00,
2013-04-09 08:15:00,48.6,34.5,29.50,West,279,1.0,1.0,58,0.00,,,0.00,Wunderground v.1.15,2013-04-09 14:15:00,
2013-04-09 08:25:00,48.8,34.2,29.51,SW,235,2.0,2.0,57,0.00,,,0.00,Wunderground v.1.15,2013-04-09 14:25:00,
2013-04-09 08:30:00,48.8,33.8,29.51,West,261,2.0,5.0,56,0.00,,,0.00,Wunderground v.1.15,2013-04-09 14:30:00,
2013-04-09 08:35:00,48.9,33.4,29.51,WSW,240,2.0,5.0,55,0.00,,,0.00,Wunderground v.1.15,2013-04-09 14:35:00,
2013-04-09 08:40:00,49.1,33.2,29.50,SSW,207,2.0,3.0,54,0.00,,,0.00,Wunderground v.1.15,2013-04-09 14:40:00,
2013-04-09 08:50:00,49.2,32.8,29.50,West,265,3.0,7.0,53,0.00,,,0.00,Wunderground v.1.15,2013-04-09 14:50:00,
2013-04-09 08:55:00,49.2,32.8,29.50,West,267,4.0,7.0,53,0.00,,,0.00,Wunderground v.1.15,2013-04-09 14:55:00,
2013-04-09 09:00:00,49.2,32.8,29.51,WSW,249,3.0,3.0,53,0.00,,,0.00,Wunderground v.1.15,2013-04-09 15:00:00,
2013-04-09 09:05:00,49.2,32.8,29.52,West,264,2.0,3.0,53,0.00,,,0.00,Wunderground v.1.15,2013-04-09 15:05:00,
2013-04-09 09:15:00,49.2,32.3,29.54,WNW,297,2.0,4.0,52,0.00,,,0.00,Wunderground v.1.15,2013-04-09 15:15:00,
2013-04-09 09:25:00,49.5,32.6,29.54,WSW,246,2.0,4.0,52,0.00,,,0.00,Wunderground v.1.15,2013-04-09 15:25:00,
2013-04-09 09:30:00,49.7,32.8,29.53,West,271,3.0,3.0,52,0.00,,,0.00,Wunderground v.1.15,2013-04-09 15:30:00,
2013-04-09 09:35:00,49.9,32.5,29.52,SW,225,2.0,3.0,51,0.00,,,0.00,Wunderground v.1.15,2013-04-09 15:35:00,
2013-04-09 09:40:00,50.1,32.7,29.53,SW,236,1.0,1.0,51,0.00,,,0.00,Wunderground v.1.15,2013-04-09 15:40:00,
2013-04-09 09:45:00,50.3,32.4,29.53,West,273,1.0,2.0,50,0.00,,,0.00,Wunderground v.1.15,2013-04-09 15:45:00,
2013-04-09 09:50:00,50.5,32.5,29.55,West,272,1.0,1.0,50,0.00,,,0.00,Wunderground v.1.15,2013-04-09 15:50:00,
2013-04-09 10:00:00,50.8,32.3,29.55,SW,236,3.0,4.0,49,0.00,,,0.00,Wunderground v.1.15,2013-04-09 16:00:00,
2013-04-09 10:05:00,50.8,32.8,29.56,West,260,4.0,11.0,50,0.00,,,0.00,Wunderground v.1.15,2013-04-09 16:05:00,
2013-04-09 10:15:00,50.9,32.9,29.56,WSW,258,2.0,3.0,50,0.00,,,0.00,Wunderground v.1.15,2013-04-09 16:15:00,
2013-04-09 10:20:00,51.1,33.1,29.55,WSW,254,2.0,2.0,50,0.00,,,0.00,Wunderground v.1.15,2013-04-09 16:20:00,
2013-04-09 10:25:00,51.3,32.8,29.55,WNW,302,2.0,2.0,49,0.00,,,0.00,Wunderground v.1.15,2013-04-09 16:25:00,
2013-04-09 10:30:00,51.5,32.4,29.54,East,101,1.0,1.0,48,0.00,,,0.00,Wunderground v.1.15,2013-04-09 16:30:00,
2013-04-09 10:35:00,51.7,32.6,29.55,SSW,198,1.0,1.0,48,0.00,,,0.00,Wunderground v.1.15,2013-04-09 16:35:00,
2013-04-09 10:40:00,52.1,33.0,29.56,WSW,252,0.0,0.0,48,0.00,,,0.00,Wunderground v.1.15,2013-04-09 16:40:00,
2013-04-09 10:45:00,52.4,32.2,29.56,ENE,73,1.0,1.0,46,0.00,,,0.00,Wunderground v.1.15,2013-04-09 16:45:00,
2013-04-09 10:55:00,52.8,32.6,29.54,ESE,107,1.0,1.0,46,0.00,,,0.00,Wunderground v.1.15,2013-04-09 16:55:00,
2013-04-09 11:05:00,53.9,31.9,29.55,West,268,1.0,1.0,43,0.00,,,0.00,Wunderground v.1.15,2013-04-09 17:05:00,
2013-04-09 11:15:00,55.0,32.9,29.53,West,260,2.0,2.0,43,0.00,,,0.00,Wunderground v.1.15,2013-04-09 17:15:00,
2013-04-09 11:20:00,55.7,31.7,29.53,SW,232,2.0,2.0,40,0.00,,,0.00,Wunderground v.1.15,2013-04-09 17:20:00,
2013-04-09 11:30:00,56.6,30.6,29.53,East,100,1.0,3.0,37,0.00,,,0.00,Wunderground v.1.15,2013-04-09 17:30:00,
2013-04-09 11:35:00,56.8,29.4,29.53,SW,229,2.0,3.0,35,0.00,,,0.00,Wunderground v.1.15,2013-04-09 17:35:00,
2013-04-09 11:40:00,56.7,28.6,29.53,WSW,241,3.0,5.0,34,0.00,,,0.00,Wunderground v.1.15,2013-04-09 17:40:00,
2013-04-09 11:50:00,56.4,28.3,29.54,NW,322,4.0,6.0,34,0.00,,,0.00,Wunderground v.1.15,2013-04-09 17:50:00,
2013-04-09 11:55:00,56.5,26.2,29.53,WSW,252,4.0,10.0,31,0.00,,,0.00,Wunderground v.1.15,2013-04-09 17:55:00,
2013-04-09 12:05:00,57.2,27.6,29.54,West,279,5.0,5.0,32,0.00,,,0.00,Wunderground v.1.15,2013-04-09 18:05:00,
2013-04-09 12:15:00,58.4,28.6,29.53,WSW,238,6.0,7.0,32,0.00,,,0.00,Wunderground v.1.15,2013-04-09 18:15:00,
2013-04-09 12:20:00,59.0,29.2,29.52,SW,218,5.0,5.0,32,0.00,,,0.00,Wunderground v.1.15,2013-04-09 18:20:00,
2013-04-09 12:25:00,59.1,28.5,29.52,West,269,5.0,5.0,31,0.00,,,0.00,Wunderground v.1.15,2013-04-09 18:25:00,
2013-04-09 12:30:00,59.5,28.8,29.51,SW,220,5.0,5.0,31,0.00,,,0.00,Wunderground v.1.15,2013-04-09 18:30:00,
2013-04-09 12:40:00,59.7,26.5,29.52,WSW,249,6.0,6.0,28,0.00,,,0.00,Wunderground v.1.15,2013-04-09 18:40:00,
2013-04-09 12:45:00,59.8,25.7,29.52,WSW,241,5.0,6.0,27,0.00,,,0.00,Wunderground v.1.15,2013-04-09 18:45:00,
2013-04-09 12:55:00,60.4,25.3,29.52,WSW,250,5.0,7.0,26,0.00,,,0.00,Wunderground v.1.15,2013-04-09 18:55:00,
2013-04-09 13:05:00,61.7,25.5,29.50,West,281,6.0,11.0,25,0.00,,,0.00,Wunderground v.1.15,2013-04-09 19:05:00,
2013-04-09 13:15:00,61.7,23.5,29.51,SW,224,7.0,7.0,23,0.00,,,0.00,Wunderground v.1.15,2013-04-09 19:15:00,
2013-04-09 13:25:00,61.4,24.2,29.51,West,264,5.0,14.0,24,0.00,,,0.00,Wunderground v.1.15,2013-04-09 19:25:00,
2013-04-09 13:30:00,61.4,25.2,29.50,North,360,6.0,6.0,25,0.00,,,0.00,Wunderground v.1.15,2013-04-09 19:30:00,
2013-04-09 13:35:00,61.5,25.3,29.49,West,261,7.0,7.0,25,0.00,,,0.00,Wunderground v.1.15,2013-04-09 19:35:00,
2013-04-09 13:45:00,60.9,20.7,29.51,West,277,5.0,12.0,21,0.00,,,0.00,Wunderground v.1.15,2013-04-09 19:45:00,
2013-04-09 13:50:00,61.2,25.1,29.50,West,261,5.0,5.0,25,0.00,,,0.00,Wunderground v.1.15,2013-04-09 19:50:00,
2013-04-09 14:00:00,61.6,23.4,29.49,West,268,6.0,6.0,23,0.00,,,0.00,Wunderground v.1.15,2013-04-09 20:00:00,
2013-04-09 14:05:00,62.1,24.8,29.49,West,264,6.0,6.0,24,0.00,,,0.00,Wunderground v.1.15,2013-04-09 20:05:00,
2013-04-09 14:15:00,63.0,25.6,29.49,West,268,6.0,10.0,24,0.00,,,0.00,Wunderground v.1.15,2013-04-09 20:15:00,
2013-04-09 14:20:00,63.4,24.9,29.49,NNW,328,5.0,5.0,23,0.00,,,0.00,Wunderground v.1.15,2013-04-09 20:20:00,
2013-04-09 14:30:00,63.7,23.0,29.49,West,267,7.0,7.0,21,0.00,,,0.00,Wunderground v.1.15,2013-04-09 20:30:00,
2013-04-09 14:40:00,63.5,23.9,29.49,West,279,6.0,6.0,22,0.00,,,0.00,Wunderground v.1.15,2013-04-09 20:40:00,
2013-04-09 14:45:00,63.7,24.1,29.50,WNW,288,6.0,12.0,22,0.00,,,0.00,Wunderground v.1.15,2013-04-09 20:45:00,
2013-04-09 14:50:00,63.8,25.3,29.49,SW,229,6.0,6.0,23,0.00,,,0.00,Wunderground v.1.15,2013-04-09 20:50:00,
2013-04-09 14:55:00,64.1,25.5,29.49,WNW,302,6.0,6.0,23,0.00,,,0.00,Wunderground v.1.15,2013-04-09 20:55:00,
2013-04-09 15:05:00,64.8,23.9,29.50,West,281,6.0,6.0,21,0.00,,,0.00,Wunderground v.1.15,2013-04-09 21:05:00,
2013-04-09 15:15:00,64.7,24.9,29.50,WSW,250,6.0,12.0,22,0.00,,,0.00,Wunderground v.1.15,2013-04-09 21:15:00,
2013-04-09 15:20:00,64.7,23.8,29.50,SW,230,6.0,6.0,21,0.00,,,0.00,Wunderground v.1.15,2013-04-09 21:20:00,
2013-04-09 15:30:00,64.4,23.6,29.49,SW,232,5.0,12.0,21,0.00,,,0.00,Wunderground v.1.15,2013-04-09 21:30:00,
2013-04-09 15:40:00,64.3,25.7,29.50,WSW,249,6.0,6.0,23,0.00,,,0.00,Wunderground v.1.15,2013-04-09 21:40:00,
2013-04-09 15:45:00,64.0,24.4,29.50,SW,222,6.0,12.0,22,0.00,,,0.00,Wunderground v.1.15,2013-04-09 21:45:00,
2013-04-09 15:50:00,63.6,25.1,29.50,West,259,5.0,6.0,23,0.00,,,0.00,Wunderground v.1.15,2013-04-09 21:50:00,
2013-04-09 15:55:00,63.4,23.8,29.51,West,267,5.0,6.0,22,0.00,,,0.00,Wunderground v.1.15,2013-04-09 21:55:00,
2013-04-09 16:05:00,63.4,22.7,29.52,WSW,242,5.0,5.0,21,0.00,,,0.00,Wunderground v.1.15,2013-04-09 22:05:00,
2013-04-09 16:15:00,63.2,22.6,29.52,West,261,6.0,8.0,21,0.00,,,0.00,Wunderground v.1.15,2013-04-09 22:15:00,
2013-04-09 16:20:00,63.0,22.4,29.52,West,263,7.0,7.0,21,0.00,,,0.00,Wunderground v.1.15,2013-04-09 22:20:00,
2013-04-09 16:25:00,62.7,23.3,29.52,SW,234,7.0,10.0,22,0.00,,,0.00,Wunderground v.1.15,2013-04-09 22:25:00,
2013-04-09 16:30:00,62.5,25.2,29.52,WNW,286,8.0,8.0,24,0.00,,,0.00,Wunderground v.1.15,2013-04-09 22:30:00,
2013-04-09 16:40:00,62.1,23.8,29.53,West,277,7.0,7.0,23,0.00,,,0.00,Wunderground v.1.15,2013-04-09 22:40:00,
2013-04-09 16:45:00,62.1,21.7,29.53,WSW,257,6.0,10.0,21,0.00,,,0.00,Wunderground v.1.15,2013-04-09 22:45:00,
2013-04-09 16:55:00,62.2,24.9,29.54,West,265,6.0,7.0,24,0.00,,,0.00,Wunderground v.1.15,2013-04-09 22:55:00,
2013-04-09 17:00:00,62.1,24.8,29.54,West,267,5.0,6.0,24,0.00,,,0.00,Wunderground v.1.15,2013-04-09 23:00:00,
2013-04-09 17:05:00,61.7,25.5,29.56,NNW,329,7.0,7.0,25,0.00,,,0.00,Wunderground v.1.15,2013-04-09 23:05:00,
2013-04-09 17:15:00,61.2,24.1,29.57,WNW,292,6.0,8.0,24,0.00,,,0.00,Wunderground v.1.15,2013-04-09 23:15:00,
2013-04-09 17:20:00,60.9,24.8,29.57,West,275,6.0,6.0,25,0.00,,,0.00,Wunderground v.1.15,2013-04-09 23:20:00,
2013-04-09 17:30:00,60.7,25.6,29.56,WNW,290,6.0,6.0,26,0.00,,,0.00,Wunderground v.1.15,2013-04-09 23:30:00,
2013-04-09 17:35:00,60.7,26.5,29.58,WNW,294,5.0,6.0,27,0.00,,,0.00,Wunderground v.1.15,2013-04-09 23:35:00,
2013-04-09 17:40:00,60.5,26.3,29.58,NW,321,5.0,5.0,27,0.00,,,0.00,Wunderground v.1.15,2013-04-09 23:40:00,
2013-04-09 17:50:00,59.9,26.7,29.58,WNW,293,6.0,6.0,28,0.00,,,0.00,Wunderground v.1.15,2013-04-09 23:50:00,
2013-04-09 17:55:00,59.8,27.4,29.58,West,260,5.0,6.0,29,0.00,,,0.00,Wunderground v.1.15,2013-04-09 23:55:00,
2013-04-09 18:05:00,59.5,25.5,29.60,West,280,6.0,10.0,27,0.00,,,0.00,Wunderground v.1.15,2013-04-10 00:05:00,
2013-04-09 18:15:00,59.1,26.0,29.60,NW,323,5.0,7.0,28,0.00,,,0.00,Wunderground v.1.15,2013-04-10 00:15:00,
2013-04-09 18:20:00,59.0,25.9,29.61,West,277,4.0,6.0,28,0.00,,,0.00,Wunderground v.1.15,2013-04-10 00:20:00,
2013-04-09 18:25:00,59.0,25.9,29.60,NW,317,4.0,6.0,28,0.00,,,0.00,Wunderground v.1.15,2013-04-10 00:25:00,
2013-04-09 18:35:00,58.8,25.7,29.61,West,269,4.0,9.0,28,0.00,,,0.00,Wunderground v.1.15,2013-04-10 00:35:00,
2013-04-09 18:40:00,58.9,25.8,29.62,West,275,4.0,4.0,28,0.00,,,0.00,Wunderground v.1.15,2013-04-10 00:40:00,
2013-04-09 18:50:00,59.0,25.9,29.63,WNW,292,3.0,9.0,28,0.00,,,0.00,Wunderground v.1.15,2013-04-10 00:50:00,
2013-04-09 18:55:00,58.8,26.6,29.60,WNW,294,4.0,9.0,29,0.00,,,0.00,Wunderground v.1.15,2013-04-10 00:55:00,
2013-04-09 19:00:00,58.6,25.6,29.60,West,275,3.0,3.0,28,0.00,,,0.00,Wunderground v.1.15,2013-04-10 01:00:00,
2013-04-09 19:05:00,58.4,24.5,29.62,NW,311,3.0,3.0,27,0.00,,,0.00,Wunderground v.1.15,2013-04-10 01:05:00,
2013-04-09 19:15:00,57.6,24.7,29.64,WSW,253,4.0,4.0,28,0.00,,,0.00,Wunderground v.1.15,2013-04-10 01:15:00,
2013-04-09 19:20:00,57.3,24.4,29.63,West,274,3.0,3.0,28,0.00,,,0.00,Wunderground v.1.15,2013-04-10 01:20:00,
2013-04-09 19:25:00,57.1,25.1,29.64,NW,324,3.0,4.0,29,0.00,,,0.00,Wunderground v.1.15,2013-04-10 01:25:00,
2013-04-09 19:30:00,56.9,24.1,29.64,West,273,2.0,2.0,28,0.00,,,0.00,Wunderground v.1.15,2013-04-10 01:30:00,
2013-04-09 19:35:00,56.7,23.9,29.65,WNW,282,2.0,2.0,28,0.00,,,0.00,Wunderground v.1.15,2013-04-10 01:35:00,
2013-04-09 19:45:00,56.2,24.3,29.67,WNW,286,1.0,1.0,29,0.00,,,0.00,Wunderground v.1.15,2013-04-10 01:45:00,
2013-04-09 19:55:00,55.7,25.5,29.69,WNW,282,1.0,2.0,31,0.00,,,0.00,Wunderground v.1.15,2013-04-10 01:55:00,
2013-04-09 20:00:00,55.5,26.1,29.69,West,279,1.0,5.0,32,0.00,,,0.00,Wunderground v.1.15,2013-04-10 02:00:00,
2013-04-09 20:05:00,55.2,26.6,29.69,WNW,302,2.0,5.0,33,0.00,,,0.00,Wunderground v.1.15,2013-04-10 02:05:00,
2013-04-09 20:15:00,54.5,26.7,29.70,WNW,299,4.0,7.0,34,0.00,,,0.00,Wunderground v.1.15,2013-04-10 02:15:00,
2013-04-09 20:20:00,54.2,26.4,29.71,NW,319,3.0,3.0,34,0.00,,,0.00,Wunderground v.1.15,2013-04-10 02:20:00,
2013-04-09 20:25:00,54.0,26.9,29.71,NW,326,3.0,3.0,35,0.00,,,0.00,Wunderground v.1.15,2013-04-10 02:25:00,
2013-04-09 20:30:00,53.7,26.7,29.72,NNW,345,4.0,4.0,35,0.00,,,0.00,Wunderground v.1.15,2013-04-10 02:30:00,
2013-04-09 20:35:00,53.5,26.5,29.72,NNW,346,3.0,4.0,35,0.00,,,0.00,Wunderground v.1.15,2013-04-10 02:35:00,
2013-04-09 20:40:00,53.3,27.0,29.73,NW,317,2.0,2.0,36,0.00,,,0.00,Wunderground v.1.15,2013-04-10 02:40:00,
2013-04-09 20:45:00,53.1,26.8,29.72,NW,325,1.0,2.0,36,0.00,,,0.00,Wunderground v.1.15,2013-04-10 02:45:00,
2013-04-09 20:50:00,53.0,26.7,29.72,NW,319,1.0,1.0,36,0.00,,,0.00,Wunderground v.1.15,2013-04-10 02:50:00,
2013-04-09 21:00:00,52.6,26.4,29.72,NNW,344,1.0,1.0,36,0.00,,,0.00,Wunderground v.1.15,2013-04-10 03:00:00,
2013-04-09 21:05:00,52.4,26.2,29.72,WNW,288,1.0,3.0,36,0.00,,,0.00,Wunderground v.1.15,2013-04-10 03:05:00,
2013-04-09 21:15:00,51.9,25.8,29.74,WNW,283,2.0,2.0,36,0.00,,,0.00,Wunderground v.1.15,2013-04-10 03:15:00,
2013-04-09 21:25:00,51.7,25.6,29.74,WNW,290,0.0,1.0,36,0.00,,,0.00,Wunderground v.1.15,2013-04-10 03:25:00,
2013-04-09 21:35:00,51.4,26.0,29.74,West,274,0.0,0.0,37,0.00,,,0.00,Wunderground v.1.15,2013-04-10 03:35:00,
2013-04-09 21:40:00,51.2,25.8,29.75,WNW,287,0.0,0.0,37,0.00,,,0.00,Wunderground v.1.15,2013-04-10 03:40:00,
2013-04-09 21:45:00,51.1,25.7,29.75,WNW,287,0.0,0.0,37,0.00,,,0.00,Wunderground v.1.15,2013-04-10 03:45:00,
2013-04-09 21:50:00,51.0,25.6,29.76,West,260,0.0,0.0,37,0.00,,,0.00,Wunderground v.1.15,2013-04-10 03:50:00,
2013-04-09 22:00:00,50.8,26.1,29.76,SW,236,0.0,0.0,38,0.00,,,0.00,Wunderground v.1.15,2013-04-10 04:00:00,
2013-04-09 22:05:00,50.8,26.1,29.75,WSW,250,0.0,0.0,38,0.00,,,0.00,Wunderground v.1.15,2013-04-10 04:05:00,
2013-04-09 22:10:00,50.7,26.0,29.74,West,276,0.0,0.0,38,0.00,,,0.00,Wunderground v.1.15,2013-04-10 04:10:00,
2013-04-09 22:15:00,50.7,26.0,29.71,WNW,286,0.0,0.0,38,0.00,,,0.00,Wunderground v.1.15,2013-04-10 04:15:00,
2013-04-09 22:25:00,50.4,26.3,29.74,West,270,0.0,0.0,39,0.00,,,0.00,Wunderground v.1.15,2013-04-10 04:25:00,
2013-04-09 22:35:00,50.1,26.1,29.75,West,277,1.0,6.0,39,0.00,,,0.00,Wunderground v.1.15,2013-04-10 04:35:00,
2013-04-09 22:40:00,50.0,26.0,29.75,WNW,290,0.0,0.0,39,0.00,,,0.00,Wunderground v.1.15,2013-04-10 04:40:00,
2013-04-09 22:45:00,49.9,26.5,29.74,West,266,0.0,0.0,40,0.00,,,0.00,Wunderground v.1.15,2013-04-10 04:45:00,
2013-04-09 22:50:00,49.8,26.4,29.75,West,266,0.0,0.0,40,0.00,,,0.00,Wunderground v.1.15,2013-04-10 04:50:00,
2013-04-09 22:55:00,49.7,26.3,29.75,West,266,0.0,0.0,40,0.00,,,0.00,Wunderground v.1.15,2013-04-10 04:55:00,
2013-04-09 23:00:00,49.6,26.8,29.75,West,266,0.0,0.0,41,0.00,,,0.00,Wunderground v.1.15,2013-04-10 05:00:00,
2013-04-09 23:05:00,49.5,26.7,29.74,West,266,0.0,0.0,41,0.00,,,0.00,Wunderground v.1.15,2013-04-10 05:05:00,
2013-04-09 23:15:00,49.3,26.6,29.75,West,280,0.0,0.0,41,0.00,,,0.00,Wunderground v.1.15,2013-04-10 05:15:00,
2013-04-09 23:25:00,49.2,26.5,29.75,West,279,0.0,0.0,41,0.00,,,0.00,Wunderground v.1.15,2013-04-10 05:25:00,
2013-04-09 23:30:00,49.2,26.5,29.76,West,279,0.0,0.0,41,0.00,,,0.00,Wunderground v.1.15,2013-04-10 05:30:00,
2013-04-09 23:35:00,49.1,26.4,29.76,West,279,0.0,0.0,41,0.00,,,0.00,Wunderground v.1.15,2013-04-10 05:35:00,
2013-04-09 23:45:00,49.0,26.3,29.76,West,279,0.0,0.0,41,0.00,,,0.00,Wunderground v.1.15,2013-04-10 05:45:00,
2013-04-09 23:50:00,49.0,26.3,29.76,West,279,0.0,0.0,41,0.00,,,0.00,Wunderground v.1.15,2013-04-10 05:50:00,
2013-04-09 23:55:00,48.9,26.2,29.76,West,279,0.0,0.0,41,0.00,,,0.00,Wunderground v.1.15,2013-04-10 05:55:00,